Погода в Валь-Сени

Франция     45°17′26″N   6°54′49″E
В апреле 2022 года жителям России запретили посещать сайт meteo.paraplan.net по решению Генеральной прокуратуры. Аудитория сайта уменьшилась в 10 раз. Владельцы сайта не видят смысла в поддержке погодного сервера в таких условиях. Сайт будет закрыт в октябре.
темп.,
°C
ветер,
м/с
пор.,
м/с
влажн.,
%
обл.,
%
осадки,
мм/ч
давл.,
гПа
погр.,
м
3 октября, пн
пн323:00+3сз779124 0.0 1024172
02:00+2сз66863 0.0 102485
05:00+2ссз55740 0.0 102355
08:00+3ссз43600 0.0 102222
11:00+10ююв0142100 0.0 1021484
14:00+12ю1238100 0.0 10201014
17:00+12зюз12455 0.0 1019699
20:00+5ссз22785 0.0 102111
4 октября, вт
вт423:00+4ссв11742 0.0 102210
02:00+3зсз117211 0.0 102211
05:00+3сз214936 0.0 102011
08:00+4сз223561 0.0 102011
11:00+11юз112386 0.0 1020409
14:00+13ю222692 0.0 1020917
17:00+12ю124417 0.0 1020555
20:00+6зсз11726 0.0 102310
5 октября, ср
ср523:00+5з116746 0.0 102410
02:00+4зюз1162100 0.0 102510
05:00+4з1164100 0.0 102410
08:00+4з116615 0.0 102510
11:00+10ю21516 0.0 1025352
14:00+13ююз23466 0.0 1023881
17:00+12ю126222 0.0 1023561
20:00+7зсз118730 0.0 102613
6 октября, чт
чт623:00+6сз32865 0.0 102817
02:00+5сз338286 0.0 102926
05:00+5ссз3355100 0.0 102920
08:00+4ссз22394 0.0 102811
11:00+10ююв11320 0.0 1028474
14:00+12юв32490 0.0 10271030
17:00+10юв327334 0.0 1027604
20:00+7юв119368 0.1 1030176
7 октября, пт
пт723:00+6вюв119133 0.0 1030124
02:00+4св119321 0.0 103033
05:00+4ссз119221 0.0 102837
08:00+3ссз01911 0.0 102710
11:00+9ююв11733 0.0 1026544
14:00+11ююв326563 0.0 10241016
17:00+9ююв228061 0.1 1023512
20:00+7ююз119279 0.3 1024135